Simultaneous Nadir Overpasses (SNOs) Predictions

Prediction of SNOs between GOES-17 and AQUA Satellite Orbit:

Table of predicted SNOs for the next 14.0 days since TLE Epoch: 10/12/2024
Index Date Time (GOES-17) GOES-17 Lat,Lon AQUA Lat,Lon Distance(km) Time Diff (sec)
1 10/13/2024 21:12:45 0.01,-104.73 0.39,-103.01 196.01 80
2 10/14/2024 09:32:31 -0.01,-104.76 0.62,-107.80 345.44 80
3 10/16/2024 09:11:52 -0.01,-104.77 -0.32,-103.40 156.58 80
4 10/16/2024 21:31:46 0.01,-104.76 -0.71,-108.21 392.52 80
5 10/18/2024 21:16:23 0.01,-104.77 0.23,-103.79 111.45 80
6 10/19/2024 09:36:05 -0.01,-104.80 0.83,-108.56 428.53 80
7 10/21/2024 09:15:19 -0.02,-104.81 -0.19,-104.14 76.48 80
8 10/21/2024 21:35:10 0.02,-104.79 -0.90,-108.93 472.47 80
9 10/23/2024 21:19:39 0.03,-104.80 0.06,-104.49 35.02 80
